C31FR-13 Weather Reports


time (UTC)temp
C
wind
direction
speed
KPH
gust
KPH
rain 1hr
cm
rain 24hr
cm
rain mn
cm
humidity
%
barometer
mb
20260506135103 13 0.0 0.0 0.00 0.00 0.00 47 1010.4
20260506134602 13 0.0 0.0 0.00 0.00 0.00 48 1010.3
20260506134102 13 0.0 0.0 0.00 0.00 0.00 47 1010.2
20260506133603 13 0.0 0.0 0.00 0.00 0.00 47 1010.1
20260506133103 13 0.0 0.0 0.00 0.00 0.00 47 1010.1
20260506132602 13 0.0 0.0 0.00 0.00 0.00 46 1010.0
20260506132102 13 0.0 0.0 0.00 0.00 0.00 45 1010.0
20260506131603 13 0.0 0.0 0.00 0.00 0.00 45 1009.9
20260506131102 13 0.0 0.0 0.00 0.00 0.00 45 1009.9
20260506130603 14 0.0 0.0 0.00 0.00 0.00 48 1009.9
20260506125101 13 0.0 0.0 0.00 0.00 0.00 48 1010.0
20260506124603 14 0.0 0.0 0.00 0.00 0.00 46 1009.9
20260506124102 14 0.0 0.0 0.00 0.00 0.00 46 1009.9
20260506123603 15 0.0 0.0 0.00 0.00 0.00 45 1009.9
20260506123102 14 0.0 0.0 0.00 0.00 0.00 43 1009.9
20260506122602 14 0.0 0.0 0.00 0.00 0.00 45 1010.0
20260506122102 14 0.0 0.0 0.00 0.00 0.00 45 1010.0
20260506121602 13 0.0 0.0 0.00 0.00 0.00 46 1010.0
20260506121102 13 0.0 0.0 0.00 0.00 0.00 46 1010.0
20260506120603 13 0.0 0.0 0.00 0.00 0.00 45 1010.0
20260506115602 14 0.0 0.0 0.00 0.00 0.00 45 1009.9
20260506115103 13 0.0 0.0 0.00 0.00 0.00 45 1010.0
20260506114102 13 0.0 0.0 0.00 0.00 0.00 45 1010.1
20260506113603 13 0.0 0.0 0.00 0.00 0.00 45 1010.1
20260506113102 13 0.0 0.0 0.00 0.00 0.00 45 1010.1
20260506112602 13 0.0 0.0 0.00 0.00 0.00 46 1010.2
20260506112102 13 0.0 0.0 0.00 0.00 0.00 47 1010.2
20260506111602 13 0.0 0.0 0.00 0.00 0.00 46 1010.2
20260506111102 13 0.0 0.0 0.00 0.00 0.00 46 1010.2
20260506110602 13 0.0 0.0 0.00 0.00 0.00 47 1010.3
20260506110103 13 0.0 0.0 0.00 0.00 0.00 48 1010.4
20260506105603 13 0.0 0.0 0.00 0.00 0.00 47 1010.4
20260506105102 13 0.0 0.0 0.00 0.00 0.00 47 1010.4
20260506104603 13 0.0 0.0 0.00 0.00 0.00 47 1010.4
20260506104103 13 0.0 0.0 0.00 0.00 0.00 47 1010.4
20260506103602 13 0.0 0.0 0.00 0.00 0.00 46 1010.4
20260506103103 13 0.0 0.0 0.00 0.00 0.00 46 1010.5
20260506102102 14 0.0 0.0 0.00 0.00 0.00 47 1010.5
20260506101602 14 0.0 0.0 0.00 0.00 0.00 47 1010.6
20260506101103 14 0.0 0.0 0.00 0.00 0.00 48 1010.6
20260506095603 13 0.0 0.0 0.00 0.00 0.00 51 1010.7
20260506095103 13 0.0 0.0 0.00 0.00 0.00 51 1010.8
20260506094102 13 0.0 0.0 0.00 0.00 0.00 52 1010.8
20260506093603 13 0.0 0.0 0.00 0.00 0.00 52 1010.8
20260506092602 12 0.0 0.0 0.00 0.00 0.00 53 1010.9
20260506091602 11 0.0 0.0 0.00 0.00 0.00 54 1010.9
20260506091103 11 0.0 0.0 0.00 0.00 0.00 55 1010.9
20260506090603 11 0.0 0.0 0.00 0.00 0.00 57 1010.9
20260506085603 11 0.0 0.0 0.00 0.00 0.00 57 1011.1
20260506085102 11 0.0 0.0 0.00 0.00 0.00 61 1011.2
20260506084103 10 0.0 0.0 0.00 0.00 0.00 61 1011.2
20260506083603 10 0.0 0.0 0.00 0.00 0.00 61 1011.1
20260506083102 10 0.0 0.0 0.00 0.00 0.00 62 1011.1
20260506082103 10 0.0 0.0 0.00 0.00 0.00 64 1011.2
20260506081103 10 0.0 0.0 0.00 0.00 0.00 63 1011.3
20260506080604 10 0.0 0.0 0.00 0.00 0.00 62 1011.3
20260506073102 9 0.0 0.0 0.00 0.00 0.00 67 1011.5
20260506072602 9 0.0 0.0 0.00 0.00 0.00 68 1011.5
20260506072102 9 0.0 0.0 0.00 0.00 0.00 68 1011.5
20260506071603 9 0.0 0.0 0.00 0.00 0.00 69 1011.6
20260506071103 9 0.0 0.0 0.00 0.00 0.00 70 1011.5
20260506070603 9 0.0 0.0 0.00 0.00 0.00 69 1011.5
20260506062103 8 0.0 0.0 0.00 0.00 0.00 75 1011.5
20260506061603 8 0.0 0.0 0.00 0.00 0.00 76 1011.5
20260506061102 8 0.0 0.0 0.00 0.00 0.00 76 1011.5
20260506060604 8 0.0 0.0 0.00 0.00 0.00 78 1011.6
20260506051103 7 0.0 0.0 0.00 0.00 0.00 79 1011.2
20260506050602 7 0.0 0.0 0.00 0.00 0.00 80 1011.1
20260506045102 7 0.0 0.0 0.00 0.00 0.00 82 1011.1
20260506044602 7 0.0 0.0 0.00 0.00 0.00 84 1011.1
20260506044103 7 0.0 0.0 0.00 0.00 0.00 85 1011.1
20260506043602 7 0.0 0.0 0.00 0.00 0.00 82 1011.0
20260506043103 8 0.0 0.0 0.00 0.00 0.00 80 1011.0
20260506042604 8 0.0 0.0 0.00 0.00 0.00 80 1011.0
20260506042103 8 0.0 0.0 0.00 0.00 0.00 81 1010.9
20260506041602 7 0.0 0.0 0.00 0.00 0.00 81 1010.9
20260506040602 8 0.0 0.0 0.00 0.00 0.00 77 1010.7
20260506035602 7 0.0 0.0 0.00 0.00 0.00 82 1010.8
20260506035103 8 0.0 0.0 0.00 0.00 0.00 81 1010.7
20260506034603 8 0.0 0.0 0.00 0.00 0.00 78 1010.8
20260506034102 8 0.0 0.0 0.00 0.00 0.00 76 1010.8
20260506033602 8 0.0 0.0 0.00 0.00 0.00 78 1010.8
20260506033102 8 0.0 0.0 0.00 0.00 0.00 78 1010.8
20260506032603 9 0.0 0.0 0.00 0.00 0.00 75 1010.8
20260506032102 8 0.0 0.0 0.00 0.00 0.00 76 1010.8
20260506031603 8 0.0 0.0 0.00 0.00 0.00 77 1010.8
20260506031103 8 0.0 0.0 0.00 0.00 0.00 78 1010.9
20260506030602 8 0.0 0.0 0.00 0.00 0.00 80 1010.8
20260506030107 9 0.0 0.0 0.00 0.00 0.00 78 1010.8
20260506025602 9 0.0 0.0 0.00 0.00 0.00 78 1010.8
20260506025102 8 0.0 0.0 0.00 0.00 0.00 79 1010.8
20260506024602 8 0.0 0.0 0.00 0.00 0.00 82 1010.9
20260506024103 8 0.0 0.0 0.00 0.00 0.00 82 1010.9
20260506023604 8 0.0 0.0 0.00 0.00 0.00 82 1010.9
20260506023103 8 0.0 0.0 0.00 0.00 0.00 79 1010.9
20260506022602 8 0.0 0.0 0.00 0.00 0.00 81 1010.9
20260506022103 8 0.0 0.0 0.00 0.00 0.00 82 1010.9
20260506021602 8 0.0 0.0 0.00 0.00 0.00 83 1010.9
20260506021103 8 0.0 0.0 0.00 0.00 0.00 83 1010.9
20260506020602 8 0.0 0.0 0.00 0.00 0.00 83 1010.9
20260506020103 7 0.0 0.0 0.00 0.00 0.00 84 1010.9
20260506015603 8 0.0 0.0 0.00 0.00 0.00 83 1010.9
20260506015102 8 0.0 0.0 0.00 0.00 0.00 84 1010.9
20260506014602 8 0.0 0.0 0.00 0.00 0.00 84 1010.9
20260506014102 8 0.0 0.0 0.00 0.00 0.00 81 1011.0
20260506013603 9 0.0 0.0 0.00 0.00 0.00 75 1011.0
20260506013103 8 0.0 0.0 0.00 0.00 0.00 76 1010.9
20260506012603 9 0.0 0.0 0.00 0.00 0.00 75 1010.9
20260506012102 9 0.0 0.0 0.00 0.00 0.00 75 1010.8
20260506011602 9 0.0 0.0 0.00 0.00 0.00 76 1010.8
20260506011102 9 0.0 0.0 0.00 0.00 0.00 76 1010.8
20260506010603 9 0.0 0.0 0.00 0.00 0.00 75 1010.8
20260506005602 9 0.0 0.0 0.00 0.00 0.00 76 1010.9
20260506005102 9 0.0 0.0 0.00 0.00 0.00 77 1010.9
20260506004604 9 0.0 0.0 0.00 0.00 0.00 78 1011.0
20260506004103 9 0.0 0.0 0.00 0.00 0.00 77 1011.1
20260506003609 10 0.0 0.0 0.00 0.00 0.00 78 1011.1
20260506003102 9 0.0 0.0 0.00 0.00 0.00 78 1011.2
20260506002602 9 0.0 0.0 0.00 0.00 0.00 78 1011.2
20260506002102 9 0.0 0.0 0.00 0.00 0.00 78 1011.3
20260506001602 9 0.0 0.0 0.00 0.00 0.00 78 1011.3
20260506001102 10 0.0 0.0 0.00 0.00 0.00 75 1011.3
20260506000601 10 0.0 0.0 0.00 0.00 0.00 77 1011.4
20260505235603 9 0.0 0.0 0.00 0.00 0.00 80 1011.5
20260505235102 9 0.0 0.0 0.00 0.00 0.00 78 1011.4
20260505234602 9 0.0 0.0 0.00 0.00 0.00 78 1011.4
20260505234102 9 0.0 0.0 0.00 0.00 0.00 79 1011.5
20260505233603 10 0.0 0.0 0.00 0.00 0.00 76 1011.4
20260505232602 9 0.0 0.0 0.00 0.00 0.00 79 1011.4
20260505231602 10 0.0 0.0 0.00 0.00 0.00 74 1011.4
20260505231102 10 0.0 0.0 0.00 0.00 0.00 75 1011.3
20260505230602 10 0.0 0.0 0.00 0.00 0.00 75 1011.4
20260505225602 10 0.0 0.0 0.00 0.00 0.00 77 1011.5
20260505225102 10 0.0 0.0 0.00 0.00 0.00 76 1011.5
20260505224103 10 0.0 0.0 0.00 0.00 0.00 76 1011.5
20260505223602 10 0.0 0.0 0.00 0.00 0.00 76 1011.6
20260505222602 10 0.0 0.0 0.00 0.00 0.00 76 1011.6
20260505222102 10 0.0 0.0 0.00 0.00 0.00 77 1011.6
20260505221602 10 0.0 0.0 0.00 0.00 0.00 76 1011.6
20260505221103 10 0.0 0.0 0.00 0.00 0.00 76 1011.6
20260505220602 10 0.0 0.0 0.00 0.00 0.00 75 1011.8
20260505215602 10 0.0 0.0 0.00 0.00 0.00 75 1011.8
20260505215102 10 0.0 0.0 0.00 0.00 0.00 76 1011.8
20260505214603 10 0.0 0.0 0.00 0.00 0.00 73 1011.8
20260505214107 10 0.0 0.0 0.00 0.00 0.00 74 1011.9
20260505213603 10 0.0 0.0 0.00 0.00 0.00 74 1011.8
20260505213103 10 0.0 0.0 0.00 0.00 0.00 75 1011.8
20260505212602 10 0.0 0.0 0.00 0.00 0.00 77 1011.8
20260505212104 10 0.0 0.0 0.00 0.00 0.00 78 1011.8
20260505211602 10 0.0 0.0 0.00 0.00 0.00 78 1011.9
20260505211103 10 0.0 0.0 0.00 0.00 0.00 76 1011.9
20260505210602 11 0.0 0.0 0.00 0.00 0.00 75 1011.8
20260505205602 10 0.0 0.0 0.00 0.00 0.00 75 1011.8
20260505205102 10 0.0 0.0 0.00 0.00 0.00 75 1011.9
20260505204602 10 0.0 0.0 0.00 0.00 0.00 73 1011.8
20260505204103 11 0.0 0.0 0.00 0.00 0.00 74 1011.7
20260505203603 10 0.0 0.0 0.00 0.00 0.00 75 1011.6
20260505203102 10 0.0 0.0 0.00 0.00 0.00 75 1011.6
20260505202602 11 0.0 0.0 0.00 0.00 0.00 74 1011.5
20260505201603 11 0.0 0.0 0.00 0.00 0.00 74 1011.4
20260505201102 11 0.0 0.0 0.00 0.00 0.00 72 1011.3
20260505200602 10 0.0 0.0 0.00 0.00 0.00 73 1011.1
20260505200103 11 0.0 0.0 0.00 0.00 0.00 74 1011.1
20260505195603 11 0.0 0.0 0.00 0.00 0.00 74 1011.1
20260505195103 11 0.0 0.0 0.00 0.00 0.00 74 1011.1
20260505194651 11 0.0 0.0 0.00 0.00 0.00 72 1011.1
20260505193603 11 0.0 0.0 0.00 0.00 0.00 72 1011.1
20260505193103 11 0.0 0.0 0.00 0.00 0.00 73 1011.1
20260505192602 12 0.0 0.0 0.00 0.00 0.00 71 1011.0
20260505192102 11 0.0 0.0 0.00 0.00 0.00 71 1010.9
20260505191603 11 0.0 0.0 0.00 0.00 0.00 71 1010.9
20260505191102 11 0.0 0.0 0.00 0.00 0.00 72 1010.8
20260505190603 11 0.0 0.0 0.00 0.00 0.00 69 1010.7
20260505185603 11 0.0 0.0 0.00 0.00 0.00 69 1010.7
20260505185103 11 0.0 0.0 0.00 0.00 0.00 69 1010.6
20260505184602 11 0.0 0.0 0.00 0.00 0.00 71 1010.6
20260505184103 11 0.0 0.0 0.00 0.00 0.00 69 1010.5
20260505183602 11 0.0 0.0 0.00 0.00 0.00 68 1010.5
20260505182603 11 0.0 0.0 0.00 0.00 0.00 71 1010.4
20260505181603 11 0.0 0.0 0.00 0.00 0.00 75 1010.3
20260505181102 11 0.0 0.0 0.00 0.00 0.00 74 1010.3
20260505180603 11 0.0 0.0 0.00 0.00 0.00 71 1010.3
20260505175602 12 0.0 0.0 0.00 0.00 0.00 64 1010.3
20260505175103 12 0.0 0.0 0.00 0.00 0.00 73 1010.3
20260505174102 12 0.0 0.0 0.00 0.00 0.00 69 1010.3
20260505173602 12 0.0 0.0 0.00 0.00 0.00 70 1010.3
20260505173103 12 0.0 0.0 0.00 0.00 0.00 70 1010.3
20260505172603 12 0.0 0.0 0.00 0.00 0.00 59 1010.3
20260505172102 13 0.0 0.0 0.00 0.00 0.00 58 1010.4
20260505171602 13 0.0 0.0 0.00 0.00 0.00 59 1010.5
20260505170603 13 0.0 0.0 0.00 0.00 0.00 56 1010.7
20260505165102 13 0.0 0.0 0.00 0.00 0.00 59 1010.9
20260505164602 13 0.0 0.0 0.00 0.00 0.00 60 1010.9
20260505164102 13 0.0 0.0 0.00 0.00 0.00 62 1011.0
20260505163603 12 0.0 0.0 0.00 0.00 0.00 64 1011.1
20260505163102 12 0.0 0.0 0.00 0.00 0.00 67 1011.1
20260505162603 12 0.0 0.0 0.00 0.00 0.00 67 1011.1
20260505162102 12 0.0 0.0 0.00 0.00 0.00 71 1011.3
20260505161602 11 0.0 0.0 0.00 0.00 0.00 73 1011.4
20260505161102 11 0.0 0.0 0.00 0.00 0.00 69 1011.5
20260505160603 11 0.0 0.0 0.00 0.00 0.00 69 1011.5
20260505153103 12 0.0 0.0 0.00 0.00 0.00 60 1011.1
20260505152602 12 0.0 0.0 0.00 0.00 0.00 55 1010.9
20260505152102 12 0.0 0.0 0.00 0.00 0.00 50 1010.5
20260505151602 12 0.0 0.0 0.00 0.00 0.00 50 1010.3
20260505151103 13 0.0 0.0 0.00 0.00 0.00 53 1010.3
20260505150603 13 0.0 0.0 0.00 0.00 0.00 53 1010.2
20260505140602 14 0.0 0.0 0.00 0.00 0.00 47 1009.8